Time,TemperatureF,DewpointF,PressureIn,WindDirection,WindDirectionDegrees,WindSpeedMPH,WindSpeedGustMPH,Humidity,HourlyPrecipIn,Conditions,Clouds,dailyrainin,SoftwareType,DateUTC
2013-02-24 00:01:00,41.0,41.0,-100.00,NNE,19,7.0,-999.0,100,0.00,,,-99.99,,2013-02-24 05:01:00,
2013-02-24 00:11:00,41.0,41.0,-100.00,NNE,19,7.0,-999.0,100,0.00,,,-99.99,,2013-02-24 05:11:00,
2013-02-24 00:52:00,42.0,42.0,-100.00,North,6,7.0,-999.0,100,0.00,,,-99.99,,2013-02-24 05:52:00,
2013-02-24 01:02:00,42.0,42.0,-100.00,North,6,7.0,-999.0,100,0.00,,,-99.99,,2013-02-24 06:02:00,
2013-02-24 01:11:00,42.0,42.0,-100.00,North,6,7.0,-999.0,100,0.00,,,-99.99,,2013-02-24 06:11:00,
2013-02-24 01:52:00,40.0,40.0,-100.00,NNW,345,9.0,-999.0,100,0.00,,,-99.99,,2013-02-24 06:52:00,
2013-02-24 02:01:00,40.0,40.0,-100.00,NNW,345,9.0,-999.0,100,0.00,,,-99.99,,2013-02-24 07:01:00,
2013-02-24 02:12:00,40.0,40.0,-100.00,NNW,345,9.0,-999.0,100,0.00,,,-99.99,,2013-02-24 07:12:00,
2013-02-24 02:52:00,41.0,41.0,-100.00,NNW,340,10.0,-999.0,100,0.00,,,-99.99,,2013-02-24 07:52:00,
2013-02-24 03:01:00,41.0,41.0,-100.00,NNW,340,10.0,-999.0,100,0.00,,,-99.99,,2013-02-24 08:01:00,
2013-02-24 03:11:00,41.0,41.0,-100.00,NNW,340,10.0,-999.0,100,0.00,,,-99.99,,2013-02-24 08:11:00,
2013-02-24 03:54:00,39.0,39.0,-100.00,North,359,10.0,-999.0,100,0.00,,,-99.99,,2013-02-24 08:54:00,
2013-02-24 04:02:00,39.0,39.0,-100.00,North,359,10.0,-999.0,100,0.00,,,-99.99,,2013-02-24 09:02:00,
2013-02-24 04:11:00,39.0,39.0,-100.00,North,359,10.0,-999.0,100,0.00,,,-99.99,,2013-02-24 09:11:00,
2013-02-24 04:52:00,39.0,39.0,-100.00,NNW,336,12.0,-999.0,100,0.00,,,-99.99,,2013-02-24 09:52:00,
2013-02-24 05:01:00,39.0,39.0,-100.00,NNW,336,12.0,-999.0,100,0.00,,,-99.99,,2013-02-24 10:01:00,
2013-02-24 05:11:00,39.0,39.0,-100.00,NNW,336,12.0,-999.0,100,0.00,,,-99.99,,2013-02-24 10:11:00,
2013-02-24 05:52:00,39.0,39.0,-100.00,North,358,4.0,-999.0,100,0.00,,,-99.99,,2013-02-24 10:52:00,
2013-02-24 06:01:00,39.0,39.0,-100.00,North,358,4.0,-999.0,100,0.00,,,-99.99,,2013-02-24 11:01:00,
2013-02-24 06:11:00,39.0,39.0,-100.00,North,358,4.0,-999.0,100,0.00,,,-99.99,,2013-02-24 11:11:00,
2013-02-24 06:53:00,39.0,39.0,-100.00,NNW,328,8.0,-999.0,100,0.00,,,-99.99,,2013-02-24 11:53:00,
2013-02-24 07:02:00,39.0,39.0,-100.00,NNW,328,8.0,-999.0,100,0.00,,,-99.99,,2013-02-24 12:02:00,
2013-02-24 07:11:00,39.0,39.0,-100.00,NNW,328,8.0,-999.0,100,0.00,,,-99.99,,2013-02-24 12:11:00,
2013-02-24 07:15:00,37.0,37.0,-100.00,NW,314,12.0,-999.0,100,0.00,,,-99.99,,2013-02-24 12:15:00,
2013-02-24 08:56:00,39.0,39.0,-100.00,WNW,303,10.0,-999.0,100,0.00,,,-99.99,,2013-02-24 13:56:00,
2013-02-24 09:05:00,39.0,39.0,-100.00,WNW,303,10.0,-999.0,100,0.00,,,-99.99,,2013-02-24 14:05:00,
2013-02-24 09:14:00,39.0,39.0,-100.00,WNW,303,10.0,-999.0,100,0.00,,,-99.99,,2013-02-24 14:14:00,
2013-02-24 09:55:00,40.0,40.0,-100.00,WNW,299,14.0,-999.0,100,0.00,,,-99.99,,2013-02-24 14:55:00,
2013-02-24 10:04:00,40.0,40.0,-100.00,WNW,299,14.0,-999.0,100,0.00,,,-99.99,,2013-02-24 15:04:00,
2013-02-24 10:14:00,40.0,40.0,-100.00,WNW,299,14.0,-999.0,100,0.00,,,-99.99,,2013-02-24 15:14:00,
2013-02-24 10:53:00,42.0,42.0,-100.00,NW,311,13.0,-999.0,100,0.00,,,-99.99,,2013-02-24 15:53:00,
2013-02-24 11:02:00,42.0,42.0,-100.00,NW,311,13.0,-999.0,100,0.00,,,-99.99,,2013-02-24 16:02:00,
2013-02-24 11:12:00,42.0,42.0,-100.00,NW,311,13.0,-999.0,100,0.00,,,-99.99,,2013-02-24 16:12:00,
2013-02-24 11:52:00,44.0,44.0,-100.00,WNW,298,15.0,-999.0,100,0.00,,,-99.99,,2013-02-24 16:52:00,
2013-02-24 12:01:00,44.0,44.0,-100.00,WNW,298,15.0,-999.0,100,0.00,,,-99.99,,2013-02-24 17:01:00,
2013-02-24 12:11:00,44.0,44.0,-100.00,WNW,298,15.0,-999.0,100,0.00,,,-99.99,,2013-02-24 17:11:00,
2013-02-24 12:53:00,47.0,38.0,-100.00,WNW,300,21.0,-999.0,71,0.00,,,-99.99,,2013-02-24 17:53:00,
2013-02-24 13:02:00,47.0,38.0,-100.00,WNW,300,21.0,-999.0,71,0.00,,,-99.99,,2013-02-24 18:02:00,
2013-02-24 13:12:00,47.0,38.0,-100.00,WNW,300,21.0,-999.0,71,0.00,,,-99.99,,2013-02-24 18:12:00,
2013-02-24 13:52:00,47.0,32.0,-100.00,WNW,303,24.0,-999.0,56,0.00,,,-99.99,,2013-02-24 18:52:00,
2013-02-24 14:01:00,47.0,32.0,-100.00,WNW,303,24.0,-999.0,56,0.00,,,-99.99,,2013-02-24 19:01:00,
2013-02-24 14:12:00,47.0,32.0,-100.00,WNW,303,24.0,-999.0,56,0.00,,,-99.99,,2013-02-24 19:12:00,
2013-02-24 14:52:00,46.0,30.0,-100.00,NW,306,21.0,-999.0,53,0.00,,,-99.99,,2013-02-24 19:52:00,
2013-02-24 15:02:00,46.0,30.0,-100.00,NW,306,21.0,-999.0,53,0.00,,,-99.99,,2013-02-24 20:02:00,
2013-02-24 15:11:00,46.0,30.0,-100.00,NW,306,21.0,-999.0,53,0.00,,,-99.99,,2013-02-24 20:11:00,
2013-02-24 15:52:00,46.0,28.0,-100.00,NW,306,23.0,-999.0,50,0.00,,,-99.99,,2013-02-24 20:52:00,
2013-02-24 16:02:00,46.0,28.0,-100.00,NW,306,23.0,-999.0,50,0.00,,,-99.99,,2013-02-24 21:02:00,
2013-02-24 16:11:00,46.0,28.0,-100.00,NW,306,23.0,-999.0,50,0.00,,,-99.99,,2013-02-24 21:11:00,
2013-02-24 16:52:00,47.0,28.0,-100.00,NW,320,19.0,-999.0,48,0.00,,,-99.99,,2013-02-24 21:52:00,
2013-02-24 17:01:00,47.0,28.0,-100.00,NW,320,19.0,-999.0,48,0.00,,,-99.99,,2013-02-24 22:01:00,
2013-02-24 17:11:00,47.0,28.0,-100.00,NW,320,19.0,-999.0,48,0.00,,,-99.99,,2013-02-24 22:11:00,
2013-02-24 17:52:00,43.0,27.0,-100.00,NW,323,20.0,-999.0,52,0.00,,,-99.99,,2013-02-24 22:52:00,
2013-02-24 18:02:00,43.0,27.0,-100.00,NW,323,20.0,-999.0,52,0.00,,,-99.99,,2013-02-24 23:02:00,
2013-02-24 18:11:00,43.0,27.0,-100.00,NW,323,20.0,-999.0,52,0.00,,,-99.99,,2013-02-24 23:11:00,
2013-02-24 18:52:00,41.0,23.0,-100.00,NW,317,20.0,-999.0,49,0.00,,,-99.99,,2013-02-24 23:52:00,
2013-02-24 19:02:00,41.0,23.0,-100.00,NW,317,20.0,-999.0,49,0.00,,,-99.99,,2013-02-25 00:02:00,
2013-02-24 19:11:00,41.0,23.0,-100.00,NW,317,20.0,-999.0,49,0.00,,,-99.99,,2013-02-25 00:11:00,
2013-02-24 19:52:00,39.0,20.0,-100.00,NW,326,25.0,-999.0,46,0.00,,,0.00,,2013-02-25 00:52:00,
2013-02-24 20:02:00,39.0,20.0,-100.00,NW,326,25.0,-999.0,46,0.00,,,0.00,,2013-02-25 01:02:00,
2013-02-24 20:11:00,39.0,20.0,-100.00,NW,326,25.0,-999.0,46,0.00,,,0.00,,2013-02-25 01:11:00,
2013-02-24 20:52:00,37.0,19.0,-100.00,NNW,336,22.0,-999.0,47,0.00,,,0.00,,2013-02-25 01:52:00,
2013-02-24 21:01:00,37.0,19.0,-100.00,NNW,336,22.0,-999.0,47,0.00,,,0.00,,2013-02-25 02:01:00,
2013-02-24 21:11:00,37.0,19.0,-100.00,NNW,336,22.0,-999.0,47,0.00,,,0.00,,2013-02-25 02:11:00,
2013-02-24 21:52:00,37.0,21.0,-100.00,NW,325,17.0,-999.0,53,0.00,,,0.00,,2013-02-25 02:52:00,
2013-02-24 22:02:00,37.0,21.0,-100.00,NW,325,17.0,-999.0,53,0.00,,,0.00,,2013-02-25 03:02:00,
2013-02-24 22:11:00,37.0,21.0,-100.00,NW,325,17.0,-999.0,53,0.00,,,0.00,,2013-02-25 03:11:00,
2013-02-24 22:52:00,36.0,23.0,-100.00,NW,320,14.0,-999.0,58,0.00,,,0.00,,2013-02-25 03:52:00,
2013-02-24 23:02:00,36.0,23.0,-100.00,NW,320,14.0,-999.0,58,0.00,,,0.00,,2013-02-25 04:02:00,
2013-02-24 23:11:00,36.0,23.0,-100.00,NW,320,14.0,-999.0,58,0.00,,,0.00,,2013-02-25 04:11:00,
2013-02-24 23:52:00,34.0,21.0,-100.00,NW,315,18.0,-999.0,59,0.00,,,0.00,,2013-02-25 04:52:00,